TimeEST,TemperatureF,Dew PointF,Humidity,Sea Level PressureIn,VisibilityMPH,Wind Direction,Wind SpeedMPH,Gust SpeedMPH,PrecipitationIn,Events,Conditions,WindDirDegrees,DateUTC
12:17 AM,14.0,6.8,73,29.79,2.5,NW,10.4,-,0.00,Snow,Light Snow,310,2013-02-01 05:17:00
12:43 AM,14.0,8.6,79,29.79,4.0,WNW,5.8,-,0.00,Snow,Light Snow,300,2013-02-01 05:43:00
12:54 AM,14.0,8.1,77,29.84,9.0,WNW,9.2,-,0.00,,Overcast,300,2013-02-01 05:54:00
1:54 AM,12.9,8.1,81,29.86,6.0,WNW,6.9,-,N/A,,Haze,300,2013-02-01 06:54:00
2:43 AM,12.2,8.6,85,29.84,3.0,NW,6.9,-,0.00,Snow,Light Snow,310,2013-02-01 07:43:00
2:54 AM,12.9,8.1,81,29.89,3.0,NW,6.9,-,0.00,Snow,Light Snow,310,2013-02-01 07:54:00
3:01 AM,12.2,8.6,85,29.85,2.0,NW,4.6,-,0.00,Snow,Light Snow,320,2013-02-01 08:01:00
3:20 AM,12.2,8.6,85,29.85,4.0,NW,8.1,-,0.00,Snow,Light Snow,320,2013-02-01 08:20:00
3:54 AM,12.0,8.1,84,29.91,8.0,NW,5.8,-,0.00,,Overcast,310,2013-02-01 08:54:00
4:51 AM,12.2,8.6,85,29.89,4.0,WNW,4.6,-,0.00,Snow,Light Snow,290,2013-02-01 09:51:00
4:54 AM,12.0,8.1,84,29.94,4.0,WNW,4.6,-,0.00,Snow,Light Snow,300,2013-02-01 09:54:00
5:14 AM,12.2,6.8,79,29.90,7.0,WNW,4.6,-,0.00,,Overcast,300,2013-02-01 10:14:00
5:54 AM,10.9,6.1,81,29.97,10.0,NW,4.6,-,0.00,,Partly Cloudy,310,2013-02-01 10:54:00
6:51 AM,10.4,3.2,73,29.95,10.0,WNW,5.8,-,N/A,,Overcast,290,2013-02-01 11:51:00
6:54 AM,10.0,3.9,76,30.00,10.0,WNW,6.9,-,N/A,,Overcast,300,2013-02-01 11:54:00
7:20 AM,10.4,3.2,73,29.96,10.0,WNW,4.6,-,N/A,,Overcast,290,2013-02-01 12:20:00
7:41 AM,10.4,5.0,79,29.97,7.0,WNW,4.6,-,N/A,,Overcast,290,2013-02-01 12:41:00
7:54 AM,10.0,3.9,76,30.03,7.0,WNW,4.6,-,N/A,,Overcast,300,2013-02-01 12:54:00
8:00 AM,10.4,5.0,79,29.99,6.0,WNW,6.9,-,0.00,Snow,Light Snow,290,2013-02-01 13:00:00
8:36 AM,10.4,5.0,79,30.01,3.0,Variable,5.8,-,0.00,Snow,Light Snow,0,2013-02-01 13:36:00
8:54 AM,10.9,6.1,81,30.06,4.0,West,4.6,-,0.00,Snow,Light Snow,280,2013-02-01 13:54:00
9:44 AM,12.2,6.8,79,30.03,2.5,West,8.1,-,0.00,Snow,Light Snow,280,2013-02-01 14:44:00
9:54 AM,12.9,7.0,77,30.08,2.0,NW,5.8,-,0.00,Snow,Light Snow,310,2013-02-01 14:54:00
10:04 AM,12.2,6.8,79,30.04,6.0,West,10.4,-,0.00,Snow,Light Snow,270,2013-02-01 15:04:00
10:20 AM,12.2,6.8,79,30.04,4.0,WNW,6.9,-,0.00,Snow,Light Snow,300,2013-02-01 15:20:00
10:47 AM,14.0,6.8,73,30.05,4.0,NW,6.9,-,0.01,Snow,Light Snow,320,2013-02-01 15:47:00
10:54 AM,14.0,6.1,71,30.10,4.0,NW,5.8,-,0.01,Snow,Light Snow,310,2013-02-01 15:54:00
11:54 AM,16.0,7.0,68,30.10,4.0,West,9.2,16.1,0.00,Snow,Light Snow,280,2013-02-01 16:54:00
12:54 PM,16.0,7.0,68,30.10,6.0,West,9.2,-,0.00,Snow,Light Snow,280,2013-02-01 17:54:00
1:54 PM,17.1,6.1,62,30.09,9.0,WNW,6.9,-,0.00,,Overcast,290,2013-02-01 18:54:00
2:54 PM,18.0,6.1,60,30.10,10.0,WNW,5.8,-,N/A,,Overcast,290,2013-02-01 19:54:00
3:54 PM,18.0,6.1,60,30.10,10.0,West,6.9,-,0.00,,Overcast,260,2013-02-01 20:54:00
4:54 PM,17.1,3.9,56,30.11,10.0,West,10.4,17.3,0.00,,Overcast,260,2013-02-01 21:54:00
5:54 PM,16.0,3.9,59,30.12,10.0,SW,8.1,17.3,N/A,,Overcast,230,2013-02-01 22:54:00
6:54 PM,15.1,5.0,64,30.14,10.0,WSW,9.2,-,N/A,,Overcast,250,2013-02-01 23:54:00
7:54 PM,14.0,3.0,62,30.14,10.0,West,9.2,18.4,0.00,,Overcast,260,2013-02-02 00:54:00
8:54 PM,12.9,1.9,62,30.14,9.0,WSW,10.4,18.4,0.00,,Overcast,240,2013-02-02 01:54:00
9:54 PM,12.0,-0.0,59,30.13,10.0,WSW,5.8,18.4,N/A,,Overcast,240,2013-02-02 02:54:00
10:54 PM,10.9,1.0,64,30.13,9.0,SW,9.2,-,0.00,,Overcast,230,2013-02-02 03:54:00
11:54 PM,10.9,-0.0,61,30.12,10.0,SW,10.4,-,N/A,,Overcast,230,2013-02-02 04:54:00